Location: Camaret
(48.2753°N, 4.5961°W)
Time: 01:12:30
(UTC+00:00)

NOSS 3-3 (C) - Pass Details

Date: 29 October 2020
Orbit: 825 x 1387 km, 63.4° (Epoch: 22 November)

Event Time Altitude Azimuth Distance (km) Brightness Sun altitude
Rises 18:03:03 0° 189° (S) 3,397 7.1 -10.4°
Reaches altitude 10° 18:05:35 10° 181° (S) 2,506 6.3 -10.8°
Maximum altitude 18:10:49 37° 116° (ESE) 1,415 4.5 -11.7°
Enters shadow 18:16:14 12° 53° (NE) 2,660 5.8 -12.6°
